Regional Weather Roundup
Issued by NWS Boston, MA

Home | Current Version | Previous Version | Text Only | Print | Product List | Glossary On
Versions: 1 2 3 4 5 6 7 8 9 10 11 12 13 14 15 16 17 18 19 20 21 22 23 24 25 26 27 28 29 30 31 32 33 34 35 36 37 38 39 40 41 42 43 44 45 46 47 48 49 50
000
ASUS41 KBOX 172110
RWRBOX

REGIONAL WEATHER ROUNDUP
NATIONAL WEATHER SERVICE TAUNTON MA
500 PM EDT WED SEP 17 2014

NOTE:  "FAIR" INDICATES FEW OR NO CLOUDS BELOW 12,000 FEET WITH NO
SIGNIFICANT WEATHER AND/OR OBSTRUCTIONS TO VISIBILITY.  THE FOLLOWING
OBSERVATION LOCATIONS DO NOT REPORT PRESENT WEATHER...PROVINCETOWN...
SMITHFIELD...BLOCK ISLAND...KEENE...AND OXFORD.

MAZALL-172200-
EASTERN MASSACHUSETTS

CITY           SKY/WX    TMP DP  RH WIND       PRES   REMARKS
BOSTON         MOSUNNY   66  50  56 SE12      29.94S
BEVERLY        MOSUNNY   64  52  64 SE10      29.93F
LAWRENCE       PTSUNNY   68  44  42 W7        29.95F
BEDFORD        MOSUNNY   68  42  38 SW5       29.93F
BLUE HILL        N/A     70  40  33 SW8       29.93F
NORWOOD        SUNNY     71  39  31 SW6       29.92F
MARSHFIELD     NOT AVBL
PLYMOUTH       MOSUNNY   69  46  43 SE6       29.94F
TAUNTON        MOSUNNY   71  44  37 S9        29.92F
NEW BEDFORD    SUNNY     68  49  50 SW15      29.93F
$$

MAZALL-172200-
CAPE COD AND THE ISLANDS

CITY           SKY/WX    TMP DP  RH WIND       PRES   REMARKS
FALMOUTH       SUNNY     68  45  42 SW9       29.94F
HYANNIS        SUNNY     69  49  48 S10       29.93F
CHATHAM        MOSUNNY   68  55  63 VRB6      29.96F
PROVINCETOWN   MOSUNNY   68  54  60 S7        29.95F
NANTUCKET      SUNNY     66  55  67 S9        29.96F
MARTHAS VNYRD  SUNNY     66  48  52 SW12      29.95F
$$

MAZALL-172200-
CENTRAL AND WESTERN MASSACHUSETTS

CITY           SKY/WX    TMP DP  RH WIND       PRES   REMARKS
WORCESTER      MOSUNNY   62  45  53 NW5       29.97S
FITCHBURG      PTSUNNY   70  43  37 VRB5      29.96F
ORANGE         SUNNY     66  43  43 W5        29.96S
SPRINGFIELD    MOSUNNY   65  44  46 NW3       29.95S
WESTFIELD      MOSUNNY   67  41  38 W6        29.96S
NORTH ADAMS    MOSUNNY   62  45  53 VRB5      29.96F
PITTSFIELD     MOSUNNY   60  45  57 W7        29.96F
$$

RIZALL-172200-
RHODE ISLAND

CITY           SKY/WX    TMP DP  RH WIND       PRES   REMARKS
PROVIDENCE     MOSUNNY   69  46  43 SE13      29.94F
NEWPORT        SUNNY     68  45  43 S8        29.95F
BLOCK ISLAND   SUNNY     66  46  48 SW9       29.97S
SMITHFIELD     SUNNY     68  39  34 W5        29.94F
WESTERLY       SUNNY     69  43  38 SW8       29.96F
$$

CTZALL-172200-
CONNECTICUT

CITY           SKY/WX    TMP DP  RH WIND       PRES   REMARKS
BRADLEY INTL   MOSUNNY   70  43  37 N7        29.95F
HARTFORD       PTSUNNY   69  41  36 W9        29.95S
BRIDGEPORT     SUNNY     71  47  42 SW10      29.96S
DANBURY        MOSUNNY   68  44  42 NW7       29.98S
GROTON         SUNNY     67  48  50 SW10      29.95S
NEW HAVEN      SUNNY     70  47  43 S6        29.97S
CHESTER        FAIR      66  48  52 SW7       29.97R
MERIDEN        PTSUNNY   71  41  33 NW9       29.95F
WILLIMANTIC    PTSUNNY   70  42  36 W6        29.95F
OXFORD         MOSUNNY   64  43  45 NW7       29.99R
$$

MEZ002-015-021-024-NHZ003-005-008-011-012-014-VTZ005-008-172200-
NORTHERN NEW ENGLAND

CITY           SKY/WX    TMP DP  RH WIND       PRES   REMARKS
PORTLAND ME    MOSUNNY   64  49  57 S6        29.94F
BANGOR ME      MOSUNNY   66  45  46 S13       29.92F
CONCORD NH     MOSUNNY   68  41  37 VRB6      29.94S
MANCHESTER NH  MOSUNNY   69  40  34 W9        29.92F
NASHUA NH      MOSUNNY   69  42  37 VRB5      29.95S
PORTSMOUTH NH  MOSUNNY   65  52  62 S9        29.93S
JAFFREY NH     PTSUNNY   63  43  48 W6        29.97S
KEENE NH       MOSUNNY   64  41  42 NW6       29.96S
BURLINGTON VT  PTSUNNY   65  43  44 S6        29.93S
MT. WASHINGTON PTSUNNY   39  36  87 W13         N/A  WCI  32
$$

NYZ052-076-172200-
EASTERN NEW YORK

CITY           SKY/WX    TMP DP  RH WIND       PRES   REMARKS
ALBANY         PTSUNNY   65  45  48 NW8       29.97S
NEW YORK CITY  MOSUNNY   72  41  32 W6        29.95S
$$

ANZALL-172200-
MARINE OBSERVATIONS

STATION/POSITION TIME  TEMP    WIND        PRES    VSBY  WAVE
                       AIR SEA DIR/SP/G                  HT/PER
                 (UTC) (F)     (DEG/KT/KT) (MB)    (MI)  (FT/S)
BOSTON BUOY      2050   62 63  130/ 10/ 12 1014.0F         2/13
BUZZARDS BAY     2000          220/ 12/ 13 1015.3F
NANTUCKET SOUND  2050   66 70  210/ 12/ 14 1014.0F         1/12
MASS BAY-STELLWA 2004   62 61  130/  8/ 10   N/A    1 3/4  3/16
ISLE OF SHOALS   2100   61     150/ 10/ 11 1013.4F
S OF BLOCK IS    2008      69                N/A           3/13
$$

......................KEY.........................
  SKY/WX - SKY CONDITION/PRESENT WEATHER
  TMP    - TEMPERATURE IN FAHRENHEIT
  DWPT   - DEWPOINT IN FAHRENHEIT
  RH     - RELATIVE HUMIDITY IN PERCENT
  WIND   - DIRECTION AND SPEED IN MPH
  PRES   - MEAN SEA LEVEL PRESSURE IN INCHES OF HG
  WCI    - WIND CHILL INDEX
  VSB    - VISIBILITY IN MILES
  HX     - HEAT INDEX
  TC     - TEMPERATURE IN CELSIUS
  VRB    - VARIABLE WIND DIRECTION
  N/A    - NOT AVAILABLE



USA.gov is the U.S. government's official web portal to all federal, state and local government web resources and services.